Вернуться в каталог

STARLINK-33845

АктивенСвязьVLEO
NORAD 63495·PAYLOAD·🇺🇸 United States

Запущен Apr 7, 2025 с Vandenberg Space Force Base

Loading…

Ближайшие Пролёты (ближайшие 24 часа)

TLE

СвежийSource: CelesTrak SupGP

Эпоха: Sep 15, 2026, 03:51 UTC

1 63495C 25071C   26258.16090278  .00066391  00000+0  19618-2 0  2587
2 63495  53.1596 338.8753 0001480  87.5473 234.3507 15.34353601    18

Отслеживайте STARLINK-33845 в реальном времени с AllMySat

Download on the App Store